TA5KT-13 Weather Reports


time (UTC)temp
C
wind
direction
speed
KPH
gust
KPH
rain 1hr
cm
rain 24hr
cm
rain mn
cm
humidity
%
barometer
mb
20260508121524 18 0.0 0.0 0.00 0.00 0.00 79 1016.4
20260508120524 18 0.0 0.0 0.00 0.00 0.00 79 1016.5
20260508115525 18 0.0 0.0 0.00 0.00 0.00 79 1016.6
20260508114524 18 0.0 0.0 0.00 0.00 0.00 76 1016.8
20260508113524 18 0.0 0.0 0.00 0.00 0.00 77 1016.8
20260508112524 18 0.0 0.0 0.00 0.00 0.00 81 1016.8
20260508111524 18 0.0 0.0 0.00 0.00 0.00 85 1016.9
20260508110524 18 0.0 0.0 0.00 0.00 0.00 86 1017.1
20260508105524 18 0.0 0.0 0.00 0.00 0.00 88 1017.2
20260508104523 18 0.0 0.0 0.00 0.00 0.00 90 1017.2
20260508103524 18 0.0 0.0 0.00 0.00 0.00 91 1017.4
20260508102523 18 0.0 0.0 0.00 0.00 0.00 91 1017.5
20260508101524 18 0.0 0.0 0.00 0.00 0.00 92 1017.5
20260508100523 18 0.0 0.0 0.00 0.00 0.00 94 1017.6
20260508095524 18 0.0 0.0 0.00 0.00 0.00 97 1017.7
20260508094524 18 0.0 0.0 0.00 0.00 0.00 99 1017.9
20260508093523 18 0.0 0.0 0.00 0.00 0.00 10 1018.0
20260508092524 18 0.0 0.0 0.00 0.00 0.00 10 1018.1
20260508091524 18 0.0 0.0 0.00 0.00 0.00 10 1018.2
20260508090524 18 0.0 0.0 0.00 0.00 0.00 10 1018.4
20260508085523 18 0.0 0.0 0.00 0.00 0.00 99 1018.5
20260508084523 18 0.0 0.0 0.00 0.00 0.00 10 1018.6
20260508083523 18 0.0 0.0 0.00 0.00 0.00 10 1018.7
20260508082523 18 0.0 0.0 0.00 0.00 0.00 10 1018.9
20260508081523 18 0.0 0.0 0.00 0.00 0.00 10 1018.9
20260508080524 18 0.0 0.0 0.00 0.00 0.00 10 1019.0
20260508075524 18 0.0 0.0 0.00 0.00 0.00 10 1019.1
20260508074523 18 0.0 0.0 0.00 0.00 0.00 10 1019.1
20260508073523 18 0.0 0.0 0.00 0.00 0.00 10 1019.2
20260508072523 18 0.0 0.0 0.00 0.00 0.00 10 1018.9
20260508071523 18 0.0 0.0 0.00 0.00 0.00 10 1019.1
20260508070523 18 0.0 0.0 0.00 0.00 0.00 10 1019.1
20260508065523 18 0.0 0.0 0.00 0.00 0.00 10 1019.1
20260508064523 18 0.0 0.0 0.00 0.00 0.00 10 1019.1
20260508063523 18 0.0 0.0 0.00 0.00 0.00 10 1019.1
20260508062523 18 0.0 0.0 0.00 0.00 0.00 10 1019.1
20260508061523 18 0.0 0.0 0.00 0.00 0.00 10 1019.2
20260508060523 18 0.0 0.0 0.00 0.00 0.00 10 1018.7
20260508055523 18 0.0 0.0 0.00 0.00 0.00 10 1019.1
20260508054523 18 0.0 0.0 0.00 0.00 0.00 10 1019.2
20260508053523 18 0.0 0.0 0.00 0.00 0.00 10 1019.2
20260508052523 18 0.0 0.0 0.00 0.00 0.00 10 1019.1
20260508051523 18 0.0 0.0 0.00 0.00 0.00 10 1019.0
20260508050522 18 0.0 0.0 0.00 0.00 0.00 10 1018.9
20260508045522 19 0.0 0.0 0.00 0.00 0.00 10 1018.9
20260508044523 19 0.0 0.0 0.00 0.00 0.00 10 1018.8
20260508043522 19 0.0 0.0 0.00 0.00 0.00 10 1018.9
20260508042522 19 0.0 0.0 0.00 0.00 0.00 10 1018.7
20260508041522 19 0.0 0.0 0.00 0.00 0.00 10 1018.7
20260508040522 18 0.0 0.0 0.00 0.00 0.00 10 1018.6
20260508035522 19 0.0 0.0 0.00 0.00 0.00 10 1018.5
20260508034522 19 0.0 0.0 0.00 0.00 0.00 10 1018.5
20260508033522 19 0.0 0.0 0.00 0.00 0.00 10 1018.1
20260508032523 19 0.0 0.0 0.00 0.00 0.00 10 1018.0
20260508031522 19 0.0 0.0 0.00 0.00 0.00 10 1017.9
20260508030522 19 0.0 0.0 0.00 0.00 0.00 10 1018.0
20260508025522 19 0.0 0.0 0.00 0.00 0.00 10 1018.0
20260508024522 19 0.0 0.0 0.00 0.00 0.00 10 1017.9
20260508023522 19 0.0 0.0 0.00 0.00 0.00 10 1017.9
20260508022522 19 0.0 0.0 0.00 0.00 0.00 10 1017.9
20260508021522 19 0.0 0.0 0.00 0.00 0.00 10 1017.9
20260508020522 19 0.0 0.0 0.00 0.00 0.00 10 1017.6
20260508015522 19 0.0 0.0 0.00 0.00 0.00 10 1017.7
20260508014522 19 0.0 0.0 0.00 0.00 0.00 10 1017.8
20260508013522 19 0.0 0.0 0.00 0.00 0.00 10 1017.7
20260508012521 19 0.0 0.0 0.00 0.00 0.00 10 1017.7
20260508011522 19 0.0 0.0 0.00 0.00 0.00 10 1017.7
20260508010521 19 0.0 0.0 0.00 0.00 0.00 10 1017.8
20260508005522 19 0.0 0.0 0.00 0.00 0.00 10 1017.9
20260508004521 19 0.0 0.0 0.00 0.00 0.00 10 1018.0
20260508003521 19 0.0 0.0 0.00 0.00 0.00 10 1017.9
20260508002521 19 0.0 0.0 0.00 0.00 0.00 10 1017.7
20260508001522 19 0.0 0.0 0.00 0.00 0.00 10 1017.7
20260508000522 19 0.0 0.0 0.00 0.00 0.00 10 1017.7
20260507235521 19 0.0 0.0 0.00 0.00 0.00 10 1017.6
20260507234522 19 0.0 0.0 0.00 0.00 0.00 10 1017.6
20260507233522 19 0.0 0.0 0.00 0.00 0.00 10 1017.5
20260507232522 19 0.0 0.0 0.00 0.00 0.00 10 1017.4
20260507231521 19 0.0 0.0 0.00 0.00 0.00 10 1017.3
20260507230521 19 0.0 0.0 0.00 0.00 0.00 10 1017.4
20260507225521 19 0.0 0.0 0.00 0.00 0.00 10 1017.5
20260507224522 19 0.0 0.0 0.00 0.00 0.00 10 1017.6
20260507223522 19 0.0 0.0 0.00 0.00 0.00 10 1017.7
20260507222521 20 0.0 0.0 0.00 0.00 0.00 10 1017.7
20260507221521 20 0.0 0.0 0.00 0.00 0.00 10 1017.9
20260507220522 20 0.0 0.0 0.00 0.00 0.00 10 1017.8
20260507215521 20 0.0 0.0 0.00 0.00 0.00 10 1017.7
20260507214521 20 0.0 0.0 0.00 0.00 0.00 10 1017.8
20260507213521 20 0.0 0.0 0.00 0.00 0.00 10 1017.9
20260507212521 20 0.0 0.0 0.00 0.00 0.00 10 1017.9
20260507211521 20 0.0 0.0 0.00 0.00 0.00 10 1017.7
20260507210520 20 0.0 0.0 0.00 0.00 0.00 10 1017.8
20260507205521 20 0.0 0.0 0.00 0.00 0.00 10 1017.7
20260507204520 20 0.0 0.0 0.00 0.00 0.00 10 1017.6
20260507203521 20 0.0 0.0 0.00 0.00 0.00 10 1017.5
20260507202521 20 0.0 0.0 0.00 0.00 0.00 10 1017.4
20260507201520 20 0.0 0.0 0.00 0.00 0.00 10 1017.5
20260507200520 20 0.0 0.0 0.00 0.00 0.00 10 1017.3
20260507195520 19 0.0 0.0 0.00 0.00 0.00 10 1017.2
20260507194521 19 0.0 0.0 0.00 0.00 0.00 10 1017.3
20260507193520 19 0.0 0.0 0.00 0.00 0.00 10 1017.3
20260507192521 19 0.0 0.0 0.00 0.00 0.00 10 1017.2
20260507191521 19 0.0 0.0 0.00 0.00 0.00 10 1017.3
20260507190521 19 0.0 0.0 0.00 0.00 0.00 10 1017.4
20260507185520 19 0.0 0.0 0.00 0.00 0.00 10 1017.5
20260507184521 19 0.0 0.0 0.00 0.00 0.00 10 1017.5
20260507183520 19 0.0 0.0 0.00 0.00 0.00 10 1017.5
20260507182521 19 0.0 0.0 0.00 0.00 0.00 10 1017.4
20260507181520 19 0.0 0.0 0.00 0.00 0.00 10 1017.4
20260507180520 19 0.0 0.0 0.00 0.00 0.00 10 1017.4
20260507175520 19 0.0 0.0 0.00 0.00 0.00 10 1017.2
20260507174520 19 0.0 0.0 0.00 0.00 0.00 10 1017.1
20260507173520 19 0.0 0.0 0.00 0.00 0.00 10 1017.1
20260507171520 18 0.0 0.0 0.00 0.00 0.00 10 1017.0
20260507170520 18 0.0 0.0 0.00 0.00 0.00 10 1017.0
20260507165520 18 0.0 0.0 0.00 0.00 0.00 10 1017.0
20260507164520 18 0.0 0.0 0.00 0.00 0.00 10 1016.8
20260507163520 18 0.0 0.0 0.00 0.00 0.00 10 1016.8
20260507162520 18 0.0 0.0 0.00 0.00 0.00 10 1016.8
20260507161520 18 0.0 0.0 0.00 0.00 0.00 10 1016.8
20260507160521 18 0.0 0.0 0.00 0.00 0.00 10 1016.7
20260507155520 18 0.0 0.0 0.00 0.00 0.00 10 1016.6
20260507154520 18 0.0 0.0 0.00 0.00 0.00 99 1016.5
20260507153520 18 0.0 0.0 0.00 0.00 0.00 98 1016.5
20260507152522 18 0.0 0.0 0.00 0.00 0.00 97 1016.5
20260507151520 18 0.0 0.0 0.00 0.00 0.00 94 1016.5
20260507150520 18 0.0 0.0 0.00 0.00 0.00 92 1016.4
20260507145519 18 0.0 0.0 0.00 0.00 0.00 90 1016.3
20260507144520 18 0.0 0.0 0.00 0.00 0.00 87 1016.2
20260507143520 18 0.0 0.0 0.00 0.00 0.00 83 1016.3
20260507142519 18 0.0 0.0 0.00 0.00 0.00 75 1016.3
20260507141520 18 0.0 0.0 0.00 0.00 0.00 72 1016.3
20260507140519 18 0.0 0.0 0.00 0.00 0.00 70 1016.3
20260507135520 18 0.0 0.0 0.00 0.00 0.00 69 1016.2
20260507134519 18 0.0 0.0 0.00 0.00 0.00 78 1016.3
20260507133519 18 0.0 0.0 0.00 0.00 0.00 77 1016.4
20260507132519 18 0.0 0.0 0.00 0.00 0.00 76 1016.3
20260507131520 18 0.0 0.0 0.00 0.00 0.00 78 1016.3
20260507130520 18 0.0 0.0 0.00 0.00 0.00 77 1016.4
20260507125519 18 0.0 0.0 0.00 0.00 0.00 80 1016.5
20260507124519 18 0.0 0.0 0.00 0.00 0.00 79 1016.5
20260507123519 18 0.0 0.0 0.00 0.00 0.00 74 1016.7
20260507122519 18 0.0 0.0 0.00 0.00 0.00 73 1016.7